Погода в Нурлине

Россия / Республика Башкортостан     54°48′49″N   55°34′14″E
темп.,
°C
ветер,
м/с
пор.,
м/с
влажн.,
%
обл.,
%
осадки,
мм/ч
давл.,
гПа
погр.,
м
6 марта, сб
сб623:00−13з349249 0.1 100947
02:00−14зюз34900 0.0 101038
05:00−15юз34910 0.0 101237
08:00−16юз34940 0.0 101244
11:00−10юз48920 0.0 1012311
14:00−6зюз598998 0.0 1012679
17:00−7з478999 0.1 1012754
20:00−10з2393100 0.1 101221
7 марта, вс
вс723:00−12з3396100 0.1 101449
02:00−14ссз3396100 0.1 101374
05:00−18сз229298 0.1 101320
08:00−21сз119935 0.0 101220
11:00−16сз229318 0.0 1011126
14:00−13сз239053 0.0 1010279
17:00−13сз239371 0.0 1010184
20:00−17юз129733 0.0 101120
8 марта, пн
пн823:00−17ююз349625 0.0 101130
02:00−18ю47969 0.0 101089
05:00−16ю6139538 0.0 1008276
08:00−11ю81594100 0.9 1005639
11:00−8ююз101590100 1.7 1003894
14:00−4ююз81389100 0.5 10031036
17:00−4зюз388383 0.7 1003370
20:00−8ю458866 0.0 100371
9 марта, вт
вт923:00−4ю7159383 0.1 1001728
02:00−3ююз81590100 0.3 997934
05:00−8юз7177689 0.5 997598
08:00−11юз9178612 0.0 1000517
11:00−8зюз8148536 0.0 1004826
14:00−8зюз8128599 0.0 1006858
17:00−8зюз698599 0.1 1008865
20:00−12юз3493100 0.1 101077
10 марта, ср
ср1023:00−15юз349591 0.1 101144
02:00−16юз339688 0.0 101133
05:00−18юз229688 0.1 101120
08:00−17зюз2397100 0.1 101151
11:00−15з239398 0.1 1011245
14:00−13з3488100 0.1 1011496
17:00−12зсз4589100 0.2 1012638
20:00−14зсз3696100 0.1 1013179